Miscellaneous Local Product
Issued by NWS North Platte, NE

Home | Current Version | Previous Version | Text Only | Print | Product List | Glossary On
Versions: 1 2 3 4 5 6 7 8 9 10 11 12 13 14 15 16 17 18 19 20 21 22 23 24 25 26 27 28 29 30 31 32 33 34 35 36 37 38 39 40 41 42 43 44 45 46 47 48 49 50
000
AXUS43 KLBF 150010
MISLBF


WESTERN AND NORTH CENTRAL NEBRASKA HOURLY WEATHER ROUNDUP
NATIONAL WEATHER SERVICE NORTH PLATTE NE
700 PM CDT SUN SEP 14 2014

***STATIONS NOT REPORTING VARIABLES SUCH AS SKY/WEATHER OR
PRESSURE ARE PROVIDED BY THE NEBRASKA DEPARTMENT OF
ROADS...RAWS...AND APRS NETWORKS...AND ARE NOT UNDER
NATIONAL WEATHER SERVICE QUALITY CONTROL***

...OBSERVATIONS IN AND NEAR THE EASTERN PANHANDLE OF NEBRASKA...

CITY           SKY/WX    TMP DP  RH WIND       PRES   REMARKS
PINE RIDGE     SUNNY     57  43  59 NE13G20   30.08R
CHADRON        MOSUNNY   60  44  55 N13       30.07R
ALLIANCE       MOSUNNY   65  51  60 N15       30.03R
SIDNEY         PTSUNNY   76  42  29 N3        30.00S
WHITECLAY        N/A     58  42  54 NE6         N/A
RUSHVILLE        N/A     61  39  44 NE21        N/A
LISCO            N/A     78  50  37 NW8         N/A
BIG SPRINGS      N/A     77  60  55 SE7         N/A
$$

...OBSERVATIONS IN NORTH CENTRAL NEBRASKA...

CITY           SKY/WX    TMP DP  RH WIND       PRES   REMARKS
VALENTINE      CLOUDY    59  44  57 E16       30.07R
THEDFORD       CLOUDY    69  55  61 SE8       30.02S
AINSWORTH      CLOUDY    58  47  65 NE10G16   30.07R
O`NEILL        CLOUDY    62  53  72 NE8       30.06S
ORD            CLOUDY    64  54  69 E6        30.03S
BROKEN BOW     CLOUDY    67  54  63 SE8       30.03S
SPRINGVIEW       N/A     60  48  64 E3          N/A
ROSE             N/A     69  58  69 E10         N/A
NEWPORT          N/A     61  52  71 E9          N/A
COMSTOCK         N/A     71  59  65 SE6         N/A
CHAMBERS         N/A     65  52  63 CALM        N/A
EWING            N/A     64  56  76 CALM        N/A
$$

...OBSERVATIONS IN SOUTHWEST NEBRASKA AND FAR NORTHEAST COLORADO...

CITY           SKY/WX    TMP DP  RH WIND       PRES   REMARKS
WRAY           FAIR      75  56  50 E14       29.94F
HOLYOKE        FAIR      73  61  64 W6        30.04R
IMPERIAL       CLEAR     71  56  58 SE6       29.98R
OGALLALA       SUNNY     72  59  63 SE5       29.99R
NORTH PLATTE   CLOUDY    68  57  68 SE7       30.00R
MCCOOK         CLEAR     74  58  57 SE10      29.95F
LEXINGTON      CLOUDY    67  57  69 E9        30.01S
PAXTON           N/A     74  60  60 SE8         N/A
SUTHERLAND       N/A     74  57  55 SE7         N/A
BRADY            N/A     67  57  70 CALM        N/A
GOTHENBURG       N/A     69  53  57 SE8         N/A
CALLAWAY         N/A     67  57  70 SE12        N/A
$$

...SOME WEATHER OBSERVATIONS FROM AROUND THE REGION...

CITY           SKY/WX    TMP DP  RH WIND       PRES   REMARKS
DENVER         PTSUNNY   77  37  23 NW9       30.06R
LARAMIE        PTSUNNY   66  36  32 SW15      30.17S
CHEYENNE       CLOUDY    71  40  32 NW9       30.11R
SCOTTSBLUFF    MOSUNNY   66  49  54 N14       30.03R
RAPID CITY     PTSUNNY   51  40  65 E6        30.12R
PIERRE         CLOUDY    55  39  54 NE6       30.12S
WINNER         CLOUDY    55  42  61 NE13      30.10S
SIOUX FALLS    CLOUDY    58  46  64 NE10      30.11R
OMAHA          MOCLDY    68  51  54 SE9       30.07R
GRAND ISLAND   CLOUDY    66  53  63 SE8       30.05R
KANSAS CITY    MOCLDY    68  57  68 SE10      30.09F
WICHITA        PTCLDY    80  59  48 S18       30.03S
HAYS           MOCLDY    81  63  54 SE9       29.95F
LIBERAL        CLEAR     82  57  42 S23G29    30.02S
GOODLAND       SUNNY     74  56  53 S14       29.97F
$$



USA.gov is the U.S. government's official web portal to all federal, state and local government web resources and services.